owner,sensor,date,latitude,longitude,vertical_datum,wind_speed,wind_to_direction,wind_speed_of_gust,qcFlag 
TABS,ioos:station:wmo:42044:1,2013-10-02T00:00:00Z,26.1914,-97.0507,0.0,1.828578683,305.4283215,3.11,'11111222,11111222,11111222' 
TABS,ioos:station:wmo:42044:1,2013-10-02T00:30:00Z,26.1914,-97.0507,0.0,1.830027322,306.5567236,2.91,'11111222,11111222,11111222' 
TABS,ioos:station:wmo:42044:1,2013-10-02T01:00:00Z,26.1914,-97.0507,0.0,1.936001033,306.8106217,2.91,'11111222,11111222,11111222' 
TABS,ioos:station:wmo:42044:1,2013-10-02T01:30:00Z,26.1914,-97.0507,0.0,0.352278299,325.4075817,2.27,'11111222,11111222,11111222' 
TABS,ioos:station:wmo:42044:1,2013-10-02T02:00:00Z,26.1914,-97.0507,0.0,1.994241711,303.1321906,2.98,'11111222,11111222,11111222' 
TABS,ioos:station:wmo:42044:1,2013-10-02T02:30:00Z,26.1914,-97.0507,0.0,1.968806745,300.863866,2.95,'11111222,11111222,11111222' 
TABS,ioos:station:wmo:42044:1,2013-10-02T03:00:00Z,26.1914,-97.0507,0.0,1.982523644,300.9636841,3.21,'11111222,11111222,11111222' 
TABS,ioos:station:wmo:42044:1,2013-10-02T03:30:00Z,26.1914,-97.0507,0.0,1.736001152,306.8038026,3.16,'11111222,11111222,11111222' 
TABS,ioos:station:wmo:42044:1,2013-10-02T04:00:00Z,26.1914,-97.0507,0.0,0.49979996,109.8855395,1.73,'11111222,11111222,11111222' 
TABS,ioos:station:wmo:42044:1,2013-10-02T04:30:00Z,26.1914,-97.0507,0.0,0.361247837,48.3661371,1.51,'11111222,11111222,11111222' 
TABS,ioos:station:wmo:42044:1,2013-10-02T05:00:00Z,26.1914,-97.0507,0.0,0.111803399,100.3052433,1.63,'11111222,11111222,11111222' 
TABS,ioos:station:wmo:42044:1,2013-10-02T05:30:00Z,26.1914,-97.0507,0.0,0.241867732,119.7452327,2.19,'11111222,11111222,11111222' 
TABS,ioos:station:wmo:42044:1,2013-10-02T06:00:00Z,26.1914,-97.0507,0.0,0.300832179,164.5780852,1.14,'11111222,11111222,11111222' 
TABS,ioos:station:wmo:42044:1,2013-10-02T06:30:00Z,26.1914,-97.0507,0.0,0.211896201,70.70957797,2.32,'11111222,11111222,11111222' 
TABS,ioos:station:wmo:42044:1,2013-10-02T07:00:00Z,26.1914,-97.0507,0.0,0.198494332,229.0857125,2.33,'11111222,11111222,11111222' 
TABS,ioos:station:wmo:42044:1,2013-10-02T07:30:00Z,26.1914,-97.0507,0.0,6.864881645,167.8063846,9.09,'11111222,11111222,11111222' 
TABS,ioos:station:wmo:42044:1,2013-10-02T08:00:00Z,26.1914,-97.0507,0.0,7.178920532,163.4080284,9.11,'11111222,11111222,11111222' 
TABS,ioos:station:wmo:42044:1,2013-10-02T08:30:00Z,26.1914,-97.0507,0.0,6.837441042,166.5533986,8.99,'11111222,11111222,11111222' 
TABS,ioos:station:wmo:42044:1,2013-10-02T09:00:00Z,26.1914,-97.0507,0.0,6.97826626,166.6609927,8.86,'11111222,11111222,11111222' 
TABS,ioos:station:wmo:42044:1,2013-10-02T09:30:00Z,26.1914,-97.0507,0.0,6.404568682,162.5555013,8.38,'11111222,11111222,11111222' 
TABS,ioos:station:wmo:42044:1,2013-10-02T10:00:00Z,26.1914,-97.0507,0.0,6.557812135,164.5229039,8.74,'11111222,11111222,11111222' 
TABS,ioos:station:wmo:42044:1,2013-10-02T10:30:00Z,26.1914,-97.0507,0.0,5.624677769,166.5322433,7.41,'11111222,11111222,11111222' 
TABS,ioos:station:wmo:42044:1,2013-10-02T11:00:00Z,26.1914,-97.0507,0.0,6.240320505,155.981843,7.87,'11111222,11111222,11111222' 
TABS,ioos:station:wmo:42044:1,2013-10-02T11:30:00Z,26.1914,-97.0507,0.0,5.636186654,156.0274558,7.35,'11111222,11111222,11111222' 
TABS,ioos:station:wmo:42044:1,2013-10-02T12:00:00Z,26.1914,-97.0507,0.0,5.338211311,166.0160631,6.84,'11111222,11111222,11111222' 
TABS,ioos:station:wmo:42044:1,2013-10-02T12:30:00Z,26.1914,-97.0507,0.0,6.437701453,165.0573622,8.3,'11111222,11111222,11111222' 
TABS,ioos:station:wmo:42044:1,2013-10-02T13:00:00Z,26.1914,-97.0507,0.0,6.150382102,169.128783,8.85,'11111222,11111222,11111222' 
TABS,ioos:station:wmo:42044:1,2013-10-02T13:30:00Z,26.1914,-97.0507,0.0,5.134296446,189.077243,6.56,'11111222,11111222,11111222' 
TABS,ioos:station:wmo:42044:1,2013-10-02T14:00:00Z,26.1914,-97.0507,0.0,5.063565937,170.2216714,6.48,'11111222,11111222,11111222' 
TABS,ioos:station:wmo:42044:1,2013-10-02T14:30:00Z,26.1914,-97.0507,0.0,4.561688284,168.4932437,5.49,'11111222,11111222,11111222' 
TABS,ioos:station:wmo:42044:1,2013-10-02T15:00:00Z,26.1914,-97.0507,0.0,4.701287058,178.6594933,6.22,'11111222,11111222,11111222' 
TABS,ioos:station:wmo:42044:1,2013-10-02T15:30:00Z,26.1914,-97.0507,0.0,5.760451371,154.0579756,7.45,'11111222,11111222,11111222' 
TABS,ioos:station:wmo:42044:1,2013-10-02T16:00:00Z,26.1914,-97.0507,0.0,4.689530893,169.4331173,6.09,'11111222,11111222,11111222' 
TABS,ioos:station:wmo:42044:1,2013-10-02T16:30:00Z,26.1914,-97.0507,0.0,4.971317733,156.5292722,6.16,'11111222,11111222,11111222' 
TABS,ioos:station:wmo:42044:1,2013-10-02T17:00:00Z,26.1914,-97.0507,0.0,5.403702434,165.8611352,6.85,'11111222,11111222,11111222' 
TABS,ioos:station:wmo:42044:1,2013-10-02T17:30:00Z,26.1914,-97.0507,0.0,5.103430219,167.8976405,6.79,'11111222,11111222,11111222' 
TABS,ioos:station:wmo:42044:1,2013-10-02T18:00:00Z,26.1914,-97.0507,0.0,4.87228899,167.6755118,6.55,'11111222,11111222,11111222' 
TABS,ioos:station:wmo:42044:1,2013-10-02T18:30:00Z,26.1914,-97.0507,0.0,4.806662043,161.5653047,5.92,'11111222,11111222,11111222' 
TABS,ioos:station:wmo:42044:1,2013-10-02T19:00:00Z,26.1914,-97.0507,0.0,4.738459665,162.9419712,6.19,'11111222,11111222,11111222' 
TABS,ioos:station:wmo:42044:1,2013-10-02T19:30:00Z,26.1914,-97.0507,0.0,4.825442985,153.5414227,6.62,'11111222,11111222,11111222' 
TABS,ioos:station:wmo:42044:1,2013-10-02T20:00:00Z,26.1914,-97.0507,0.0,5.298697953,144.0603712,6.49,'11111222,11111222,11111222' 
TABS,ioos:station:wmo:42044:1,2013-10-02T20:30:00Z,26.1914,-97.0507,0.0,5.153532769,149.0555931,6.06,'11111222,11111222,11111222' 
TABS,ioos:station:wmo:42044:1,2013-10-02T21:00:00Z,26.1914,-97.0507,0.0,5.60406995,143.4166704,6.74,'11111222,11111222,11111222' 
TABS,ioos:station:wmo:42044:1,2013-10-02T21:30:00Z,26.1914,-97.0507,0.0,5.103812301,141.6034757,6.45,'11111222,11111222,11111222' 
TABS,ioos:station:wmo:42044:1,2013-10-02T22:00:00Z,26.1914,-97.0507,0.0,5.427964628,138.7349423,6.73,'11111222,11111222,11111222' 
TABS,ioos:station:wmo:42044:1,2013-10-02T22:30:00Z,26.1914,-97.0507,0.0,5.641276451,141.9115266,6.84,'11111222,11111222,11111222' 
TABS,ioos:station:wmo:42044:1,2013-10-02T23:00:00Z,26.1914,-97.0507,0.0,6.050198344,139.4914561,7.02,'11111222,11111222,11111222' 
TABS,ioos:station:wmo:42044:1,2013-10-02T23:30:00Z,26.1914,-97.0507,0.0,6.15709347,137.3698182,7.38,'11111222,11111222,11111222' 
TABS,ioos:station:wmo:42044:1,2013-10-03T00:00:00Z,26.1914,-97.0507,0.0,5.971808771,138.4623806,7.55,'11111222,11111222,11111222' 
TABS,ioos:station:wmo:42044:1,2013-10-03T00:30:00Z,26.1914,-97.0507,0.0,5.91034686,146.1757883,7.29,'11111222,11111222,11111222' 
TABS,ioos:station:wmo:42044:1,2013-10-03T01:00:00Z,26.1914,-97.0507,0.0,5.797413216,141.8652764,7.34,'11111222,11111222,11111222' 
TABS,ioos:station:wmo:42044:1,2013-10-03T01:30:00Z,26.1914,-97.0507,0.0,6.663887754,136.7028697,8.06,'11111222,11111222,11111222' 
TABS,ioos:station:wmo:42044:1,2013-10-03T02:00:00Z,26.1914,-97.0507,0.0,6.464742841,143.9989855,8.35,'11111222,11111222,11111222' 
TABS,ioos:station:wmo:42044:1,2013-10-03T02:30:00Z,26.1914,-97.0507,0.0,6.534011019,139.6558122,8.3,'11111222,11111222,11111222' 
TABS,ioos:station:wmo:42044:1,2013-10-03T03:00:00Z,26.1914,-97.0507,0.0,6.687727566,144.432738,8.21,'11111222,11111222,11111222' 
TABS,ioos:station:wmo:42044:1,2013-10-03T03:30:00Z,26.1914,-97.0507,0.0,7.022827066,140.2574077,8.73,'11111222,11111222,11111222' 
TABS,ioos:station:wmo:42044:1,2013-10-03T04:00:00Z,26.1914,-97.0507,0.0,7.64655478,146.414131,9.2,'11111222,11111222,11111222' 
TABS,ioos:station:wmo:42044:1,2013-10-03T04:30:00Z,26.1914,-97.0507,0.0,6.966850077,155.3112866,8.74,'11111222,11111222,11111222' 
TABS,ioos:station:wmo:42044:1,2013-10-03T05:00:00Z,26.1914,-97.0507,0.0,6.310190171,153.3540086,8.0,'11111222,11111222,11111222' 
TABS,ioos:station:wmo:42044:1,2013-10-03T05:30:00Z,26.1914,-97.0507,0.0,6.32487154,157.8960592,7.91,'11111222,11111222,11111222' 
TABS,ioos:station:wmo:42044:1,2013-10-03T06:00:00Z,26.1914,-97.0507,0.0,6.334484983,150.0758946,7.61,'11111222,11111222,11111222' 
TABS,ioos:station:wmo:42044:1,2013-10-03T06:30:00Z,26.1914,-97.0507,0.0,5.995331517,155.1450314,7.44,'11111222,11111222,11111222' 
TABS,ioos:station:wmo:42044:1,2013-10-03T07:00:00Z,26.1914,-97.0507,0.0,5.856551887,156.236444,7.17,'11111222,11111222,11111222' 
TABS,ioos:station:wmo:42044:1,2013-10-03T07:30:00Z,26.1914,-97.0507,0.0,6.012254153,154.7991457,7.72,'11111222,11111222,11111222' 
TABS,ioos:station:wmo:42044:1,2013-10-03T08:00:00Z,26.1914,-97.0507,0.0,5.777231171,159.7460109,7.24,'11111222,11111222,11111222' 
TABS,ioos:station:wmo:42044:1,2013-10-03T08:30:00Z,26.1914,-97.0507,0.0,5.832195127,155.8083568,7.44,'11111222,11111222,11111222' 
TABS,ioos:station:wmo:42044:1,2013-10-03T09:00:00Z,26.1914,-97.0507,0.0,5.556446706,162.1848692,7.58,'11111222,11111222,11111222' 
TABS,ioos:station:wmo:42044:1,2013-10-03T09:30:00Z,26.1914,-97.0507,0.0,5.556122749,154.8650091,7.59,'11111222,11111222,11111222' 
TABS,ioos:station:wmo:42044:1,2013-10-03T10:00:00Z,26.1914,-97.0507,0.0,5.313981558,154.5925518,7.01,'11111222,11111222,11111222' 
TABS,ioos:station:wmo:42044:1,2013-10-03T10:30:00Z,26.1914,-97.0507,0.0,5.417757839,160.5954186,7.02,'11111222,11111222,11111222' 
TABS,ioos:station:wmo:42044:1,2013-10-03T11:00:00Z,26.1914,-97.0507,0.0,4.978875375,150.6550629,6.93,'11111222,11111222,11111222' 
TABS,ioos:station:wmo:42044:1,2013-10-03T11:30:00Z,26.1914,-97.0507,0.0,5.076071315,160.6729214,6.4,'11111222,11111222,11111222' 
TABS,ioos:station:wmo:42044:1,2013-10-03T12:00:00Z,26.1914,-97.0507,0.0,5.698069849,152.6257606,7.17,'11111222,11111222,11111222' 
TABS,ioos:station:wmo:42044:1,2013-10-03T12:30:00Z,26.1914,-97.0507,0.0,5.569748648,160.4917471,7.63,'11111222,11111222,11111222' 
TABS,ioos:station:wmo:42044:1,2013-10-03T13:00:00Z,26.1914,-97.0507,0.0,5.570080789,157.0718072,6.71,'11111222,11111222,11111222' 
TABS,ioos:station:wmo:42044:1,2013-10-03T13:30:00Z,26.1914,-97.0507,0.0,5.369543742,155.3443694,7.51,'11111222,11111222,11111222' 
TABS,ioos:station:wmo:42044:1,2013-10-03T14:00:00Z,26.1914,-97.0507,0.0,5.302263668,156.4327623,7.08,'11111222,11111222,11111222' 
TABS,ioos:station:wmo:42044:1,2013-10-03T14:30:00Z,26.1914,-97.0507,0.0,5.465016011,153.7165398,7.66,'11111222,11111222,11111222' 
TABS,ioos:station:wmo:42044:1,2013-10-03T15:00:00Z,26.1914,-97.0507,0.0,5.233593412,154.6593011,6.97,'11111222,11111222,11111222' 
TABS,ioos:station:wmo:42044:1,2013-10-03T15:30:00Z,26.1914,-97.0507,0.0,4.785018286,148.5026039,6.1,'11111222,11111222,11111222' 
TABS,ioos:station:wmo:42044:1,2013-10-03T16:00:00Z,26.1914,-97.0507,0.0,5.344698308,146.7562089,6.93,'11111222,11111222,11111222' 
TABS,ioos:station:wmo:42044:1,2013-10-03T16:30:00Z,26.1914,-97.0507,0.0,4.874884614,150.9114271,6.27,'11111222,11111222,11111222' 
TABS,ioos:station:wmo:42044:1,2013-10-03T17:00:00Z,26.1914,-97.0507,0.0,5.283029434,147.9949021,6.67,'11111222,11111222,11111222' 
TABS,ioos:station:wmo:42044:1,2013-10-03T17:30:00Z,26.1914,-97.0507,0.0,5.594157667,146.2250027,7.0,'11111222,11111222,11111222' 
TABS,ioos:station:wmo:42044:1,2013-10-03T18:00:00Z,26.1914,-97.0507,0.0,5.413658652,144.5487376,6.86,'11111222,11111222,11111222' 
TABS,ioos:station:wmo:42044:1,2013-10-03T18:30:00Z,26.1914,-97.0507,0.0,5.777205207,146.3652343,7.25,'11111222,11111222,11111222' 
TABS,ioos:station:wmo:42044:1,2013-10-03T19:00:00Z,26.1914,-97.0507,0.0,5.460586049,151.0883526,7.16,'11111222,11111222,11111222' 
TABS,ioos:station:wmo:42044:1,2013-10-03T19:30:00Z,26.1914,-97.0507,0.0,5.534509915,150.5635749,7.1,'11111222,11111222,11111222' 
TABS,ioos:station:wmo:42044:1,2013-10-03T20:00:00Z,26.1914,-97.0507,0.0,5.720847839,147.782579,7.15,'11111222,11111222,11111222' 
TABS,ioos:station:wmo:42044:1,2013-10-03T20:30:00Z,26.1914,-97.0507,0.0,5.492831692,154.5548635,7.2,'11111222,11111222,11111222' 
TABS,ioos:station:wmo:42044:1,2013-10-03T21:00:00Z,26.1914,-97.0507,0.0,5.635068766,152.9805036,7.25,'11111222,11111222,11111222' 
TABS,ioos:station:wmo:42044:1,2013-10-03T21:30:00Z,26.1914,-97.0507,0.0,5.036586145,152.3159107,6.64,'11111222,11111222,11111222' 
TABS,ioos:station:wmo:42044:1,2013-10-03T22:00:00Z,26.1914,-97.0507,0.0,4.978845248,152.097022,6.07,'11111222,11111222,11111222' 
TABS,ioos:station:wmo:42044:1,2013-10-03T22:30:00Z,26.1914,-97.0507,0.0,5.105536211,155.3426974,6.15,'11111222,11111222,11111222' 
TABS,ioos:station:wmo:42044:1,2013-10-03T23:00:00Z,26.1914,-97.0507,0.0,5.683396872,147.0651719,7.06,'11111222,11111222,11111222' 
TABS,ioos:station:wmo:42044:1,2013-10-03T23:30:00Z,26.1914,-97.0507,0.0,5.872350466,145.3359919,7.3,'11111222,11111222,11111222' 
TABS,ioos:station:wmo:42044:1,2013-10-04T00:00:00Z,26.1914,-97.0507,0.0,6.107937459,137.4552883,7.59,'11111222,11111222,11111222' 
TABS,ioos:station:wmo:42044:1,2013-10-04T00:30:00Z,26.1914,-97.0507,0.0,6.074150146,146.7549735,7.56,'11111222,11111222,11111222' 
TABS,ioos:station:wmo:42044:1,2013-10-04T01:00:00Z,26.1914,-97.0507,0.0,5.566048868,147.9949021,6.95,'11111222,11111222,11111222' 
TABS,ioos:station:wmo:42044:1,2013-10-04T01:30:00Z,26.1914,-97.0507,0.0,6.184181433,140.18287,7.65,'11111222,11111222,11111222' 
TABS,ioos:station:wmo:42044:1,2013-10-04T02:00:00Z,26.1914,-97.0507,0.0,6.512488004,135.1869458,7.92,'11111222,11111222,11111222' 
TABS,ioos:station:wmo:42044:1,2013-10-04T02:30:00Z,26.1914,-97.0507,0.0,6.55497521,134.6912807,7.77,'11111222,11111222,11111222' 
TABS,ioos:station:wmo:42044:1,2013-10-04T03:00:00Z,26.1914,-97.0507,0.0,6.653269873,130.4895328,8.58,'11111222,11111222,11111222' 
TABS,ioos:station:wmo:42044:1,2013-10-04T03:30:00Z,26.1914,-97.0507,0.0,6.755812312,131.88037,8.26,'11111222,11111222,11111222' 
TABS,ioos:station:wmo:42044:1,2013-10-04T04:00:00Z,26.1914,-97.0507,0.0,6.463698632,131.1112009,7.79,'11111222,11111222,11111222' 
TABS,ioos:station:wmo:42044:1,2013-10-04T04:30:00Z,26.1914,-97.0507,0.0,6.68575351,133.1214498,8.33,'11111222,11111222,11111222' 
TABS,ioos:station:wmo:42044:1,2013-10-04T05:00:00Z,26.1914,-97.0507,0.0,7.445871339,137.5040437,8.7,'11111222,11111222,11111222' 
TABS,ioos:station:wmo:42044:1,2013-10-04T05:30:00Z,26.1914,-97.0507,0.0,6.961048772,144.8262105,8.81,'11111222,11111222,11111222' 
TABS,ioos:station:wmo:42044:1,2013-10-04T06:00:00Z,26.1914,-97.0507,0.0,6.899572451,144.9742566,8.7,'11111222,11111222,11111222' 
TABS,ioos:station:wmo:42044:1,2013-10-04T06:30:00Z,26.1914,-97.0507,0.0,7.491041316,147.8165378,9.3,'11111222,11111222,11111222' 
TABS,ioos:station:wmo:42044:1,2013-10-04T07:00:00Z,26.1914,-97.0507,0.0,6.791656646,156.1148683,8.84,'11111222,11111222,11111222' 
TABS,ioos:station:wmo:42044:1,2013-10-04T07:30:00Z,26.1914,-97.0507,0.0,6.550007634,156.1354758,8.65,'11111222,11111222,11111222' 
TABS,ioos:station:wmo:42044:1,2013-10-04T08:00:00Z,26.1914,-97.0507,0.0,7.146586598,153.7579094,8.94,'11111222,11111222,11111222' 
TABS,ioos:station:wmo:42044:1,2013-10-04T08:30:00Z,26.1914,-97.0507,0.0,7.010007133,152.0095233,9.12,'11111222,11111222,11111222' 
TABS,ioos:station:wmo:42044:1,2013-10-04T09:00:00Z,26.1914,-97.0507,0.0,6.733929017,149.9704531,8.52,'11111222,11111222,11111222' 
TABS,ioos:station:wmo:42044:1,2013-10-04T09:30:00Z,26.1914,-97.0507,0.0,6.602522245,154.7160082,8.4,'11111222,11111222,11111222' 
TABS,ioos:station:wmo:42044:1,2013-10-04T10:00:00Z,26.1914,-97.0507,0.0,6.446650293,159.2881798,8.35,'11111222,11111222,11111222' 
TABS,ioos:station:wmo:42044:1,2013-10-04T10:30:00Z,26.1914,-97.0507,0.0,7.003370617,153.3620469,9.13,'11111222,11111222,11111222' 
TABS,ioos:station:wmo:42044:1,2013-10-04T11:00:00Z,26.1914,-97.0507,0.0,5.793927856,157.6846741,7.32,'11111222,11111222,11111222' 
TABS,ioos:station:wmo:42044:1,2013-10-04T11:30:00Z,26.1914,-97.0507,0.0,5.864639801,157.5457317,8.04,'11111222,11111222,11111222' 
TABS,ioos:station:wmo:42044:1,2013-10-04T12:00:00Z,26.1914,-97.0507,0.0,6.031193912,156.240337,7.61,'11111222,11111222,11111222' 
TABS,ioos:station:wmo:42044:1,2013-10-04T12:30:00Z,26.1914,-97.0507,0.0,6.015189108,156.5890522,7.52,'11111222,11111222,11111222' 
TABS,ioos:station:wmo:42044:1,2013-10-04T13:00:00Z,26.1914,-97.0507,0.0,6.474449784,155.2560316,8.21,'11111222,11111222,11111222' 
TABS,ioos:station:wmo:42044:1,2013-10-04T13:30:00Z,26.1914,-97.0507,0.0,6.568302673,156.2060592,8.23,'11111222,11111222,11111222' 
TABS,ioos:station:wmo:42044:1,2013-10-04T14:00:00Z,26.1914,-97.0507,0.0,6.654592399,153.2041918,8.4,'11111222,11111222,11111222' 
TABS,ioos:station:wmo:42044:1,2013-10-04T14:30:00Z,26.1914,-97.0507,0.0,6.087133973,158.4085971,7.78,'11111222,11111222,11111222' 
TABS,ioos:station:wmo:42044:1,2013-10-04T15:00:00Z,26.1914,-97.0507,0.0,5.452210561,160.8341935,6.98,'11111222,11111222,11111222' 
TABS,ioos:station:wmo:42044:1,2013-10-04T15:30:00Z,26.1914,-97.0507,0.0,5.413409277,164.2438497,7.24,'11111222,11111222,11111222' 
TABS,ioos:station:wmo:42044:1,2013-10-04T16:00:00Z,26.1914,-97.0507,0.0,5.919527008,156.2932967,7.57,'11111222,11111222,11111222' 
TABS,ioos:station:wmo:42044:1,2013-10-04T16:30:00Z,26.1914,-97.0507,0.0,5.992537025,161.7164802,7.78,'11111222,11111222,11111222' 
TABS,ioos:station:wmo:42044:1,2013-10-04T17:00:00Z,26.1914,-97.0507,0.0,5.643846206,165.7424019,7.02,'11111222,11111222,11111222' 
TABS,ioos:station:wmo:42044:1,2013-10-04T17:30:00Z,26.1914,-97.0507,0.0,5.474568476,162.4589252,7.61,'11111222,11111222,11111222' 
TABS,ioos:station:wmo:42044:1,2013-10-04T18:00:00Z,26.1914,-97.0507,0.0,5.555186766,154.4038961,7.42,'11111222,11111222,11111222' 
TABS,ioos:station:wmo:42044:1,2013-10-04T18:30:00Z,26.1914,-97.0507,0.0,5.688585061,153.255047,7.27,'11111222,11111222,11111222' 
TABS,ioos:station:wmo:42044:1,2013-10-04T19:00:00Z,26.1914,-97.0507,0.0,5.704463165,150.6042263,7.21,'11111222,11111222,11111222' 
TABS,ioos:station:wmo:42044:1,2013-10-04T19:30:00Z,26.1914,-97.0507,0.0,5.560188846,144.7381311,6.97,'11111222,11111222,11111222' 
TABS,ioos:station:wmo:42044:1,2013-10-04T20:00:00Z,26.1914,-97.0507,0.0,5.61601282,143.2528254,6.94,'11111222,11111222,11111222' 
TABS,ioos:station:wmo:42044:1,2013-10-04T20:30:00Z,26.1914,-97.0507,0.0,5.346045267,143.3661822,7.24,'11111222,11111222,11111222' 
TABS,ioos:station:wmo:42044:1,2013-10-04T21:00:00Z,26.1914,-97.0507,0.0,5.681769091,137.0686244,7.35,'11111222,11111222,11111222' 
TABS,ioos:station:wmo:42044:1,2013-10-04T21:30:00Z,26.1914,-97.0507,0.0,5.72049823,134.9294929,7.08,'11111222,11111222,11111222' 
TABS,ioos:station:wmo:42044:1,2013-10-04T22:00:00Z,26.1914,-97.0507,0.0,5.518043131,133.2379288,7.1,'11111222,11111222,11111222' 
TABS,ioos:station:wmo:42044:1,2013-10-04T22:30:00Z,26.1914,-97.0507,0.0,5.784755829,135.8407783,7.5,'11111222,11111222,11111222' 
TABS,ioos:station:wmo:42044:1,2013-10-04T23:00:00Z,26.1914,-97.0507,0.0,6.040033112,133.7928579,8.05,'11111222,11111222,11111222' 
TABS,ioos:station:wmo:42044:1,2013-10-04T23:30:00Z,26.1914,-97.0507,0.0,5.636390689,134.0658397,7.53,'11111222,11111222,11111222' 
TABS,ioos:station:wmo:42044:1,2013-10-05T00:00:00Z,26.1914,-97.0507,0.0,5.551549333,134.0515573,7.36,'11111222,11111222,11111222' 
TABS,ioos:station:wmo:42044:1,2013-10-05T00:30:00Z,26.1914,-97.0507,0.0,6.148577071,128.5291609,7.94,'11111222,11111222,11111222' 
TABS,ioos:station:wmo:42044:1,2013-10-05T01:00:00Z,26.1914,-97.0507,0.0,6.307535176,131.1435237,8.12,'11111222,11111222,11111222' 
TABS,ioos:station:wmo:42044:1,2013-10-05T01:30:00Z,26.1914,-97.0507,0.0,6.270964838,127.875316,8.13,'11111222,11111222,11111222' 
TABS,ioos:station:wmo:42044:1,2013-10-05T02:00:00Z,26.1914,-97.0507,0.0,6.599712115,131.9294588,8.48,'11111222,11111222,11111222' 
TABS,ioos:station:wmo:42044:1,2013-10-05T02:30:00Z,26.1914,-97.0507,0.0,6.374574496,131.6935769,8.06,'11111222,11111222,11111222' 
TABS,ioos:station:wmo:42044:1,2013-10-05T03:00:00Z,26.1914,-97.0507,0.0,6.294410219,129.4562553,8.17,'11111222,11111222,11111222' 
TABS,ioos:station:wmo:42044:1,2013-10-05T03:30:00Z,26.1914,-97.0507,0.0,6.173013851,131.1251298,7.85,'11111222,11111222,11111222' 
TABS,ioos:station:wmo:42044:1,2013-10-05T04:00:00Z,26.1914,-97.0507,0.0,5.784980553,134.0198013,7.48,'11111222,11111222,11111222' 
TABS,ioos:station:wmo:42044:1,2013-10-05T04:30:00Z,26.1914,-97.0507,0.0,5.924466221,139.7241931,7.38,'11111222,11111222,11111222' 
TABS,ioos:station:wmo:42044:1,2013-10-05T05:00:00Z,26.1914,-97.0507,0.0,6.299031672,142.0934047,8.18,'11111222,11111222,11111222' 
TABS,ioos:station:wmo:42044:1,2013-10-05T05:30:00Z,26.1914,-97.0507,0.0,6.429626739,147.125851,7.98,'11111222,11111222,11111222' 
TABS,ioos:station:wmo:42044:1,2013-10-05T06:00:00Z,26.1914,-97.0507,0.0,6.351417165,154.4438434,8.37,'11111222,11111222,11111222' 
TABS,ioos:station:wmo:42044:1,2013-10-05T06:30:00Z,26.1914,-97.0507,0.0,6.283183906,155.5563128,8.41,'11111222,11111222,11111222' 
TABS,ioos:station:wmo:42044:1,2013-10-05T07:00:00Z,26.1914,-97.0507,0.0,6.232383172,151.7493323,7.96,'11111222,11111222,11111222' 
TABS,ioos:station:wmo:42044:1,2013-10-05T07:30:00Z,26.1914,-97.0507,0.0,5.534040116,158.8140836,7.45,'11111222,11111222,11111222' 
TABS,ioos:station:wmo:42044:1,2013-10-05T08:00:00Z,26.1914,-97.0507,0.0,5.567854165,159.9380252,7.2,'11111222,11111222,11111222' 
TABS,ioos:station:wmo:42044:1,2013-10-05T08:30:00Z,26.1914,-97.0507,0.0,5.258374273,165.4618829,7.11,'11111222,11111222,11111222' 
TABS,ioos:station:wmo:42044:1,2013-10-05T09:00:00Z,26.1914,-97.0507,0.0,5.456784768,160.0709746,6.93,'11111222,11111222,11111222' 
TABS,ioos:station:wmo:42044:1,2013-10-05T09:30:00Z,26.1914,-97.0507,0.0,4.912728366,168.8504116,6.55,'11111222,11111222,11111222' 
TABS,ioos:station:wmo:42044:1,2013-10-05T10:00:00Z,26.1914,-97.0507,0.0,5.130974566,178.8834777,6.91,'11111222,11111222,11111222' 
TABS,ioos:station:wmo:42044:1,2013-10-05T10:30:00Z,26.1914,-97.0507,0.0,4.475913315,177.05471,5.56,'11111222,11111222,11111222' 
TABS,ioos:station:wmo:42044:1,2013-10-05T11:00:00Z,26.1914,-97.0507,0.0,4.683599043,173.1331608,6.17,'11111222,11111222,11111222' 
TABS,ioos:station:wmo:42044:1,2013-10-05T11:30:00Z,26.1914,-97.0507,0.0,4.681132342,171.5239341,6.04,'11111222,11111222,11111222' 
TABS,ioos:station:wmo:42044:1,2013-10-05T12:00:00Z,26.1914,-97.0507,0.0,4.633119899,177.8974273,5.7,'11111222,11111222,11111222' 
TABS,ioos:station:wmo:42044:1,2013-10-05T12:30:00Z,26.1914,-97.0507,0.0,4.778252819,161.830736,6.14,'11111222,11111222,11111222' 
TABS,ioos:station:wmo:42044:1,2013-10-05T13:00:00Z,26.1914,-97.0507,0.0,4.036359746,156.8016742,5.95,'11111222,11111222,11111222' 
TABS,ioos:station:wmo:42044:1,2013-10-05T13:30:00Z,26.1914,-97.0507,0.0,3.688793841,146.0517469,5.08,'11111222,11111222,11111222' 
TABS,ioos:station:wmo:42044:1,2013-10-05T14:00:00Z,26.1914,-97.0507,0.0,4.193626116,134.1308027,5.51,'11111222,11111222,11111222' 
TABS,ioos:station:wmo:42044:1,2013-10-05T14:30:00Z,26.1914,-97.0507,0.0,1.73104015,212.4967126,3.71,'11111222,11111222,11111222' 
TABS,ioos:station:wmo:42044:1,2013-10-05T15:00:00Z,26.1914,-97.0507,0.0,3.313080138,203.8572884,4.75,'11111222,11111222,11111222' 
TABS,ioos:station:wmo:42044:1,2013-10-05T15:30:00Z,26.1914,-97.0507,0.0,4.087052728,183.3666632,5.19,'11111222,11111222,11111222' 
TABS,ioos:station:wmo:42044:1,2013-10-05T16:00:00Z,26.1914,-97.0507,0.0,4.630388753,179.2577599,5.76,'11111222,11111222,11111222' 
TABS,ioos:station:wmo:42044:1,2013-10-05T16:30:00Z,26.1914,-97.0507,0.0,4.296440387,171.5683754,5.46,'11111222,11111222,11111222' 
TABS,ioos:station:wmo:42044:1,2013-10-05T17:00:00Z,26.1914,-97.0507,0.0,4.644749724,182.591564,6.11,'11111222,11111222,11111222' 
TABS,ioos:station:wmo:42044:1,2013-10-05T17:30:00Z,26.1914,-97.0507,0.0,4.458183487,183.472319,5.79,'11111222,11111222,11111222' 
TABS,ioos:station:wmo:42044:1,2013-10-05T18:00:00Z,26.1914,-97.0507,0.0,4.274225076,177.4524361,6.02,'11111222,11111222,11111222' 
TABS,ioos:station:wmo:42044:1,2013-10-05T18:30:00Z,26.1914,-97.0507,0.0,3.890051414,179.7056339,4.92,'11111222,11111222,11111222' 